TimeEDT,TemperatureF,Dew PointF,Humidity,Sea Level PressureIn,VisibilityMPH,Wind Direction,Wind SpeedMPH,Gust SpeedMPH,PrecipitationIn,Events,Conditions,WindDirDegrees,DateUTC
12:03 AM,66.2,66.2,100,30.16,6.0,East,4.6,-,N/A,,Overcast,80,2013-08-18 04:03:00
12:10 AM,66.2,66.2,100,30.16,5.0,East,4.6,-,N/A,,Light Drizzle,90,2013-08-18 04:10:00
12:15 AM,66.2,66.2,100,30.16,4.0,East,5.8,-,N/A,,Light Drizzle,90,2013-08-18 04:15:00
12:32 AM,66.2,66.2,100,30.15,4.0,Variable,4.6,-,N/A,,Overcast,0,2013-08-18 04:32:00
12:42 AM,66.2,66.2,100,30.15,5.0,East,4.6,-,N/A,,Overcast,90,2013-08-18 04:42:00
12:52 AM,66.2,66.2,100,30.14,5.0,East,4.6,-,N/A,,Overcast,80,2013-08-18 04:52:00
12:58 AM,65.7,65.7,100,30.13,5.0,Variable,3.5,-,0.00,,Overcast,0,2013-08-18 04:58:00
1:03 AM,66.2,66.2,100,30.14,5.0,Variable,3.5,-,N/A,,Overcast,0,2013-08-18 05:03:00
1:23 AM,66.2,66.2,100,30.14,5.0,East,4.6,-,N/A,,Overcast,100,2013-08-18 05:23:00
1:48 AM,66.2,66.2,100,30.13,2.5,NE,4.6,-,N/A,,Overcast,50,2013-08-18 05:48:00
1:53 AM,66.2,66.2,100,30.13,2.0,Variable,2.3,-,N/A,,Overcast,0,2013-08-18 05:53:00
1:58 AM,65.7,65.7,100,30.12,2.0,NE,3.5,-,N/A,,Overcast,40,2013-08-18 05:58:00
2:03 AM,66.2,66.2,100,30.13,2.5,Variable,4.6,-,N/A,,Overcast,0,2013-08-18 06:03:00
2:13 AM,66.2,66.2,100,30.13,3.0,East,3.5,-,N/A,,Overcast,90,2013-08-18 06:13:00
2:18 AM,66.2,66.2,100,30.13,3.0,East,3.5,-,N/A,,Overcast,80,2013-08-18 06:18:00
2:38 AM,66.2,66.2,100,30.13,5.0,East,6.9,-,N/A,,Overcast,90,2013-08-18 06:38:00
2:48 AM,66.2,66.2,100,30.13,7.0,Variable,5.8,-,N/A,,Overcast,0,2013-08-18 06:48:00
2:58 AM,65.7,65.7,100,30.12,9.0,East,8.1,-,N/A,,Overcast,100,2013-08-18 06:58:00
3:03 AM,66.2,66.2,100,30.13,10.0,East,4.6,-,N/A,,Overcast,90,2013-08-18 07:03:00
3:06 AM,66.2,66.2,100,30.14,7.0,East,5.8,-,N/A,,Light Drizzle,100,2013-08-18 07:06:00
3:11 AM,66.2,66.2,100,30.14,4.0,East,5.8,-,N/A,,Light Drizzle,90,2013-08-18 07:11:00
3:21 AM,66.2,66.2,100,30.13,6.0,East,3.5,-,N/A,,Light Drizzle,90,2013-08-18 07:21:00
3:26 AM,66.2,66.2,100,30.13,4.0,East,4.6,-,N/A,,Light Drizzle,90,2013-08-18 07:26:00
3:32 AM,66.2,66.2,100,30.13,5.0,East,4.6,-,N/A,,Overcast,80,2013-08-18 07:32:00
3:37 AM,66.2,66.2,100,30.13,7.0,East,3.5,-,N/A,,Overcast,90,2013-08-18 07:37:00
3:42 AM,66.2,66.2,100,30.13,10.0,Variable,2.3,-,N/A,,Overcast,0,2013-08-18 07:42:00
3:58 AM,65.8,65.8,100,30.12,10.0,East,4.6,-,0.01,,Overcast,90,2013-08-18 07:58:00
4:28 AM,66.2,66.2,100,30.12,10.0,East,5.8,-,N/A,,Overcast,90,2013-08-18 08:28:00
4:58 AM,66.0,66.0,100,30.13,10.0,East,3.5,-,N/A,,Overcast,90,2013-08-18 08:58:00
5:17 AM,66.2,66.2,100,30.14,10.0,ENE,3.5,-,N/A,,Light Drizzle,70,2013-08-18 09:17:00
5:37 AM,66.2,66.2,100,30.15,10.0,East,2.3,-,N/A,Rain,Light Rain,80,2013-08-18 09:37:00
5:58 AM,66.0,66.0,100,30.14,9.0,East,3.5,-,0.01,Rain,Light Rain,90,2013-08-18 09:58:00
6:08 AM,66.2,66.2,100,30.15,8.0,Variable,2.3,-,N/A,Rain,Light Rain,0,2013-08-18 10:08:00
6:33 AM,66.2,66.2,100,30.15,6.0,East,4.6,-,N/A,Rain,Light Rain,80,2013-08-18 10:33:00
6:48 AM,66.2,66.2,100,30.16,5.0,East,4.6,-,N/A,,Light Drizzle,80,2013-08-18 10:48:00
6:53 AM,66.2,66.2,100,30.16,5.0,Variable,2.3,-,N/A,,Light Drizzle,0,2013-08-18 10:53:00
6:55 AM,66.2,66.2,100,30.16,2.5,Variable,2.3,-,N/A,Rain,Light Rain,0,2013-08-18 10:55:00
6:58 AM,66.2,66.2,100,30.15,2.5,East,4.6,-,0.01,Rain,Light Rain,80,2013-08-18 10:58:00
7:25 AM,66.2,66.2,100,30.16,3.0,ESE,2.3,-,N/A,,Overcast,110,2013-08-18 11:25:00
7:46 AM,66.2,66.2,100,30.18,3.0,East,2.3,-,N/A,,Overcast,90,2013-08-18 11:46:00
7:58 AM,66.6,66.6,100,30.17,4.0,ENE,2.3,-,N/A,,Overcast,70,2013-08-18 11:58:00
8:58 AM,67.6,67.6,100,30.19,5.0,East,3.5,-,N/A,,Overcast,100,2013-08-18 12:58:00
9:58 AM,68.7,68.5,99,30.19,5.0,Variable,2.3,-,N/A,,Overcast,0,2013-08-18 13:58:00
10:28 AM,69.8,69.8,100,30.20,6.0,Variable,2.3,-,N/A,,Overcast,0,2013-08-18 14:28:00
10:50 AM,69.8,69.8,100,30.21,6.0,East,5.8,-,N/A,,Overcast,100,2013-08-18 14:50:00
10:58 AM,69.8,69.8,100,30.20,7.0,ESE,5.8,-,N/A,,Overcast,110,2013-08-18 14:58:00
11:47 AM,73.4,69.8,88,30.21,7.0,ESE,5.8,-,N/A,,Overcast,110,2013-08-18 15:47:00
11:58 AM,73.8,68.9,85,30.19,8.0,East,3.5,-,N/A,,Overcast,100,2013-08-18 15:58:00
12:28 PM,75.2,69.8,83,30.20,10.0,East,5.8,-,N/A,,Overcast,90,2013-08-18 16:28:00
12:53 PM,73.4,68.0,83,30.20,10.0,East,5.8,-,N/A,,Overcast,100,2013-08-18 16:53:00
12:58 PM,74.1,68.7,83,30.19,10.0,East,3.5,-,N/A,,Overcast,90,2013-08-18 16:58:00
1:06 PM,73.4,68.0,83,30.20,3.0,East,4.6,-,N/A,Rain,Light Rain,90,2013-08-18 17:06:00
1:23 PM,73.4,69.8,88,30.20,6.0,SE,4.6,-,N/A,,Overcast,140,2013-08-18 17:23:00
1:34 PM,73.4,69.8,88,30.20,3.0,South,4.6,-,N/A,Rain,Light Rain,190,2013-08-18 17:34:00
1:57 PM,73.4,71.6,94,30.19,7.0,East,5.8,-,N/A,,Overcast,100,2013-08-18 17:57:00
1:58 PM,73.4,71.6,94,30.17,7.0,East,4.6,-,0.01,,Overcast,100,2013-08-18 17:58:00
2:43 PM,73.4,69.8,88,30.19,7.0,East,4.6,-,N/A,,Overcast,80,2013-08-18 18:43:00
2:58 PM,73.4,70.7,91,30.17,7.0,East,5.8,-,0.00,,Overcast,100,2013-08-18 18:58:00
3:10 PM,73.4,69.8,88,30.19,7.0,East,6.9,-,N/A,,Light Drizzle,100,2013-08-18 19:10:00
3:44 PM,73.4,71.6,94,30.17,7.0,ENE,4.6,-,N/A,,Overcast,60,2013-08-18 19:44:00
3:58 PM,73.6,71.2,92,30.14,7.0,East,5.8,-,0.00,,Overcast,90,2013-08-18 19:58:00
4:58 PM,73.4,69.8,88,30.12,10.0,East,4.6,-,N/A,,Mostly Cloudy,80,2013-08-18 20:58:00
5:58 PM,75.2,69.8,83,30.12,10.0,ENE,3.5,-,N/A,,Mostly Cloudy,60,2013-08-18 21:58:00
6:53 PM,73.4,69.8,88,30.16,10.0,East,3.5,-,N/A,,Light Drizzle,90,2013-08-18 22:53:00
6:58 PM,73.9,70.5,89,30.14,10.0,ENE,2.3,-,0.01,,Light Drizzle,70,2013-08-18 22:58:00
7:09 PM,73.4,69.8,88,30.15,10.0,ENE,3.5,-,N/A,,Mostly Cloudy,70,2013-08-18 23:09:00
7:54 PM,73.4,69.8,88,30.15,10.0,East,3.5,-,N/A,,Light Drizzle,80,2013-08-18 23:54:00
7:58 PM,72.7,70.5,93,30.14,7.0,East,3.5,-,0.00,Rain,Light Rain,80,2013-08-18 23:58:00
8:54 PM,71.6,71.6,100,30.16,7.0,Variable,1.2,-,N/A,Rain,Light Rain,0,2013-08-19 00:54:00
8:58 PM,71.6,71.2,99,30.14,7.0,NE,3.5,-,0.03,Rain,Light Rain,50,2013-08-19 00:58:00
9:43 PM,71.6,71.6,100,30.17,10.0,East,6.9,-,N/A,,Overcast,90,2013-08-19 01:43:00
9:58 PM,70.9,70.9,100,30.15,10.0,East,5.8,-,0.00,Rain,Light Rain,90,2013-08-19 01:58:00
10:15 PM,71.6,71.6,100,30.17,10.0,Variable,4.6,-,N/A,,Light Drizzle,0,2013-08-19 02:15:00
10:28 PM,71.6,71.6,100,30.16,10.0,Variable,4.6,-,N/A,,Overcast,0,2013-08-19 02:28:00
10:58 PM,70.7,70.3,99,30.15,10.0,East,5.8,-,0.00,,Overcast,80,2013-08-19 02:58:00
11:33 PM,69.8,69.8,100,30.17,10.0,Variable,5.8,-,N/A,,Overcast,0,2013-08-19 03:33:00
11:38 PM,69.8,69.8,100,30.17,10.0,East,6.9,-,N/A,,Overcast,90,2013-08-19 03:38:00
11:58 PM,69.8,69.8,100,30.15,10.0,Variable,5.8,-,N/A,,Overcast,0,2013-08-19 03:58:00